This demonstration page uses our WeatherBlox Daily Observations layout. Learn more.

Left ArrowRight Arrow

31.31129, -92.44514

Hourly Observations for July 20, 2022

Temp ( °F °C ) Dew Point ( °F °C ) Humidity (%) Winds ( mph kmh ) Pressure ( in mb ) Visibility ( mi km ) Precip ( " mm )
12:53 am 00:53 Clear 82 27.8 75 23.9 79 79 SSW 5 7 29.94 1014 10 16 0.00 0.00
1:53 am 01:53 Clear 81 27.2 75 23.9 82 82 S 5 7 29.93 1013 10 16 0.00 0.00
2:53 am 02:53 Clear 80 26.7 75 23.9 85 85 S 5 7 29.92 1013 10 16 0.00 0.00
3:53 am 03:53 Clear 80 26.7 75 23.9 85 85 SSW 5 7 29.91 1013 10 16 0.00 0.00
4:53 am 04:53 Clear 80 26.7 75 23.9 85 85 SW 5 7 29.92 1013 10 16 0.00 0.00
5:53 am 05:53 Clear 80 26.7 75 23.9 85 85 SW 5 7 29.94 1014 9 14 0.00 0.00
6:53 am 06:53 Sunny 79 26.1 75 23.9 88 88 S 5 7 29.95 1014 7 11 0.00 0.00
7:53 am 07:53 Sunny 82 27.8 76 24.4 82 82 SW 6 9 29.97 1015 8 13 0.00 0.00
8:53 am 08:53 Mostly Sunny 86 30 76 24.4 72 72 SW 9 15 29.98 1015 9 14 0.00 0.00
9:53 am 09:53 Partly Cloudy 88 31.1 75 23.9 66 66 WSW 10 17 29.97 1015 10 16 0.00 0.00
10:53 am 10:53 undefined 92 33.3 74 23.3 56 56 undefined N/A 29.97 1015 N/A 0.00 0.00
11:53 am 11:53 Mostly Cloudy 93 33.9 72 22.2 50 50 WSW 8 13 29.96 1015 10 16 0.00 0.00
12:53 pm 12:53 Mostly Cloudy 95 35 72 22.2 47 47 WSW 7 11 29.95 1014 10 16 0.00 0.00
1:53 pm 13:53 Mostly Sunny 98 36.7 72 22.2 43 43 SSW 9 15 29.92 1013 10 16 0.00 0.00
2:53 pm 14:53 Sunny 99 37.2 71 21.7 41 41 SW 8 13 29.89 1012 10 16 0.00 0.00
3:53 pm 15:53 Sunny 100 37.8 70 21.1 38 38 WSW 8 13 29.86 1011 10 16 0.00 0.00
4:53 pm 16:53 Sunny 100 37.8 69 20.6 37 37 WSW 8 13 29.86 1011 10 16 0.00 0.00
5:53 pm 17:53 Sunny 98 36.7 70 21.1 40 40 WSW 8 13 29.85 1011 10 16 0.00 0.00
6:53 pm 18:53 Sunny 97 36.1 70 21.1 42 42 WSW 6 9 29.84 1011 10 16 0.00 0.00
7:53 pm 19:53 Sunny 93 33.9 74 23.3 54 54 SSW 13 20 29.85 1011 10 16 0.00 0.00
8:53 pm 20:53 Clear 91 32.8 76 24.4 61 61 SSW 10 17 29.86 1011 10 16 0.00 0.00
9:53 pm 21:53 Clear 89 31.7 75 23.9 63 63 SW 10 17 29.89 1012 10 16 0.00 0.00
10:53 pm 22:53 Clear 87 30.6 75 23.9 67 67 SSW 9 15 29.90 1013 10 16 0.00 0.00
11:53 pm 23:53 Clear 85 29.4 75 23.9 72 72 SW 12 19 29.91 1013 10 16 0.00 0.00

Powered by AerisWeather